Date,TemperatureHighF,TemperatureAvgF,TemperatureLowF,DewpointHighF,DewpointAvgF,DewpointLowF,HumidityHigh,HumidityAvg,HumidityLow,PressureMaxIn,PressureMinIn,WindSpeedMaxMPH,WindSpeedAvgMPH,GustSpeedMaxMPH,PrecipitationSumIn
2013-2-1,28.7,22.9,16.2,23.3,9.1,1.4,90,56,41,30.37,29.80,35,12,39,0.01
2013-2-2,27.8,20.4,10.9,21.9,10.8,1.9,84,67,51,30.38,29.99,15,2,20,0.00
2013-2-3,34.0,27.5,21.1,27.5,22.7,14.8,91,82,59,29.99,29.79,27,3,30,0.00
2013-2-4,36.6,29.8,22.9,24.5,15.1,9.5,70,54,42,30.08,29.84,29,6,29,0.00
2013-2-5,38.2,32.9,30.1,32.0,28.6,22.6,92,84,70,29.91,29.82,7,0,9,0.00
2013-2-6,41.5,34.6,23.9,32.5,26.4,17.4,95,73,55,30.33,29.90,28,4,28,0.00
2013-2-7,39.2,31.5,22.2,27.1,22.0,17.4,87,69,53,30.40,30.17,16,3,20,0.00
2013-2-8,40.1,35.2,32.1,35.8,29.0,20.4,91,78,59,30.17,29.76,45,8,45,0.01
2013-2-9,39.5,31.4,21.8,21.6,16.7,12.5,71,55,35,30.38,29.93,44,16,44,0.00
2013-2-10,44.8,31.5,14.1,23.9,16.1,10.4,88,57,28,30.44,30.16,22,5,26,0.00
2013-2-11,63.1,47.5,34.9,48.4,35.9,20.5,94,70,21,30.16,29.63,29,9,38,0.14
2013-2-12,55.3,46.4,30.9,30.4,25.8,21.2,77,46,28,29.96,29.80,32,11,34,0.00
2013-2-13,41.3,33.5,24.1,32.3,27.1,20.5,95,79,59,29.92,29.64,15,1,15,0.08
2013-2-14,49.6,37.0,27.6,33.5,28.6,22.8,100,74,45,29.98,29.75,16,2,23,0.00
2013-2-15,53.2,39.0,27.0,36.2,30.9,22.5,94,74,47,30.00,29.89,26,2,26,0.10
2013-2-16,36.3,32.6,27.9,33.2,24.7,14.3,99,75,49,29.97,29.84,26,6,26,0.00
2013-2-17,29.8,25.3,21.6,16.4,10.1,4.3,68,53,37,30.20,29.84,35,14,38,0.00
2013-2-18,39.2,25.0,14.8,19.2,8.4,4.0,65,50,32,30.36,30.07,22,4,26,0.00
2013-2-19,48.9,40.0,34.0,40.4,27.0,17.1,84,60,45,30.07,29.63,28,7,30,0.02
2013-2-20,35.9,29.3,23.6,19.3,12.0,6.3,53,48,43,30.16,29.83,39,18,40,0.00
2013-2-21,36.8,27.9,22.9,16.5,12.8,8.4,73,53,40,30.32,30.11,33,10,33,0.00
2013-2-22,31.8,28.8,24.1,27.9,22.2,15.7,86,76,62,30.36,30.16,14,3,18,0.00
2013-2-23,45.5,36.6,31.8,39.0,33.2,27.6,94,87,77,30.16,29.80,13,1,14,0.00
2013-2-24,47.9,38.2,26.1,38.8,27.8,16.1,100,69,40,30.11,29.77,34,9,34,0.00
2013-2-25,46.2,31.8,18.1,24.3,19.5,14.0,87,63,37,30.20,30.10,9,1,10,0.00
2013-2-26,40.9,34.4,23.2,39.4,29.7,18.5,98,83,67,30.18,29.60,24,4,32,0.65
2013-2-27,53.9,43.1,36.2,41.0,35.4,30.7,100,77,45,29.66,29.53,30,6,33,0.02
2013-2-28,43.1,39.9,32.5,35.4,28.2,23.5,85,63,50,29.70,29.60,26,7,30,0.00